Theta_e
304 305 305 305 306 305 305 303 299 296 297 302 303 309 310 311 311 314 314 310 305 305 305 306 309 311 311 317 321 321 322 323 325 325 325 325 325 325
303 303 303 304 304 304 303 299 300 298 294 301 303 305 307 307 308 310 311 307 306 303 303 304 305 308 309 310 318 318 320 321 322 323 323 323 323 323
302 301 298 298 296 296 296 296 296 296 293 298 301 304 303 303 305 309 310 312 313 304 303 303 303 304 306 308 313 315 317 318 319 320 321 321 321 321
300 298 297 296 295 295 294 295 294 296 293 291 295 296 297 301 302 305 307 307 309 306 303 303 303 303 303 306 310 312 313 314 315 316 316 317 318 318
298 297 296 295 292 293 293 293 293 293 293 291 290 293 294 297 300 302 303 305 304 303 302 302 303 303 303 304 306 310 311 311 311 311 311 311 312 313
297 295 295 294 292 292 291 292 291 291 291 290 289 290 291 294 297 296 295 298 296 299 301 301 304 304 303 303 305 307 309 309 308 308 306 305 306 308
294 293 294 294 293 292 292 291 291 289 288 287 287 288 289 289 290 293 291 292 293 298 303 304 305 307 306 304 307 307 309 309 308 307 305 303 303 305
292 292 293 293 292 291 290 290 290 288 287 287 286 285 287 289 290 291 290 288 287 299 299 298 303 306 308 311 307 307 307 307 307 305 303 302 302 302
292 291 290 291 291 292 290 289 288 288 285 288 287 287 286 289 290 288 288 289 288 294 297 294 300 305 310 310 305 306 306 306 306 304 302 302 301 300
292 291 290 291 291 290 289 289 289 289 289 289 289 289 290 290 289 289 288 289 290 296 298 292 300 306 309 311 304 304 305 304 304 302 302 301 299 299
292 292 290 290 289 288 288 287 287 288 289 289 289 289 289 289 290 290 287 286 287 292 294 288 291 292 306 307 306 302 303 302 302 301 300 300 300 298
290 290 288 289 287 286 287 286 285 286 288 288 289 289 290 290 288 290 290 285 287 289 289 288 290 290 288 293 303 303 303 300 300 300 300 300 298 305
288 289 289 287 287 286 286 286 286 288 286 286 287 288 289 290 290 290 291 289 287 291 292 288 288 289 290 290 300 304 307 303 302 300 299 299 300 304
288 288 289 287 287 286 286 286 286 285 287 286 285 286 286 287 288 288 288 289 289 288 288 289 288 290 291 293 294 301 304 305 304 302 301 299 300 298
289 288 288 287 286 285 285 285 284 288 286 285 285 285 286 287 286 287 287 288 287 288 288 287 290 289 293 295 294 297 297 301 303 302 301 302 300 300
286 288 287 286 285 286 286 287 287 287 286 285 284 285 286 286 286 287 286 287 287 287 288 287 288 290 289 294 298 296 299 294 301 301 300 301 300 300
287 288 287 286 286 287 287 287 287 286 285 286 285 285 286 287 287 288 287 287 287 286 286 287 288 289 289 289 291 297 297 297 300 299 299 297 297 297
286 285 285 285 285 286 286 285 286 285 286 285 285 285 284 285 286 287 287 287 286 286 286 287 287 287 287 289 291 293 291 297 298 298 298 293 293 295
284 285 286 286 286 286 286 286 285 286 286 285 284 284 284 285 285 285 286 286 286 287 287 286 287 288 286 285 286 288 291 294 295 295 296 295 292 293
286 286 286 286 287 285 285 286 286 286 286 285 285 285 284 284 284 285 286 285 286 287 286 286 286 287 287 285 285 285 287 290 293 294 293 293 292 288
283 283 283 284 285 285 284 285 285 285 286 285 285 284 284 284 284 285 286 285 285 287 286 286 287 286 287 288 285 284 285 287 292 294 291 287 286 286
283 283 283 284 284 284 285 285 285 286 285 285 285 285 285 284 284 284 285 286 285 286 287 289 287 287 286 287 286 284 284 285 286 286 286 286 287 284
281 283 283 284 284 284 285 284 283 284 284 283 285 286 285 284 284 285 285 286 286 286 287 286 286 287 287 286 286 285 284 284 285 284 283 284 285 286
Wind_Speed
11 11 10 9 8 8 8 8 8 9 14 8 11 10 10 12 13 15 17 17 13 17 21 23 26 27 24 31 40 39 39 39 40 39 38 38 38 36
10 12 11 9 9 8 6 6 6 8 11 8 11 14 14 14 17 18 19 20 21 20 23 28 29 29 29 28 39 42 41 40 40 38 39 39 38 36
12 12 12 11 8 7 7 7 7 7 11 15 13 14 17 19 19 17 16 16 15 18 23 29 31 29 28 32 37 43 42 43 40 40 39 39 38 37
14 13 14 8 11 9 8 10 8 8 8 19 13 13 17 18 17 20 15 15 17 23 27 27 29 29 30 30 36 42 43 42 41 39 39 39 38 37
13 13 13 11 12 9 8 8 8 7 8 11 15 13 13 12 16 15 16 18 15 25 28 30 29 31 33 31 28 43 44 41 40 37 37 36 36 36
13 13 14 13 14 11 10 11 10 9 9 10 12 13 11 12 13 14 13 12 14 15 21 24 25 28 35 36 35 37 41 42 40 38 36 34 35 36
14 14 15 14 14 12 9 10 10 9 9 11 12 12 11 11 13 10 12 13 16 15 15 13 13 18 20 35 36 42 45 47 46 39 38 35 35 34
15 14 14 14 14 14 16 16 13 13 15 12 12 12 15 14 13 12 11 13 12 8 10 16 15 13 15 18 34 46 45 45 43 42 40 37 36 33
16 14 13 11 10 12 10 10 13 17 18 16 16 14 15 16 16 18 15 15 16 15 14 16 14 12 13 16 31 39 46 47 47 46 42 40 38 33
16 15 13 13 11 9 10 12 14 15 13 11 13 13 14 15 17 17 17 18 16 15 10 12 14 10 11 13 34 41 45 46 47 44 43 39 36 35
15 15 12 11 10 7 11 13 15 13 13 17 21 23 24 22 19 12 11 10 12 10 5 4 7 0 9 12 17 37 40 43 43 45 42 39 37 35
12 14 11 12 9 7 11 13 13 13 10 11 12 14 14 14 15 12 8 10 10 6 3 7 5 1 4 2 15 20 23 44 42 40 39 39 38 21
8 8 6 9 11 12 14 12 13 10 10 10 9 9 9 10 10 8 10 9 9 7 5 4 5 5 3 3 10 17 22 25 21 25 38 38 39 27
7 6 6 10 12 12 11 13 11 9 6 6 7 7 8 8 9 10 11 10 8 8 11 8 5 2 1 3 6 7 14 21 22 21 22 31 36 30
6 6 8 9 10 9 13 9 7 5 5 5 6 7 7 9 11 10 9 9 8 6 6 6 6 2 3 8 8 8 14 15 20 20 19 21 18 19
7 7 7 7 5 5 5 6 4 4 4 5 6 7 7 7 8 7 7 7 5 4 5 8 7 5 4 1 12 12 13 8 18 18 19 18 17 18
5 6 5 5 6 4 3 3 4 4 4 4 5 6 7 8 8 8 6 6 4 5 5 5 8 8 8 4 6 11 14 15 17 20 21 16 16 18
4 5 5 5 4 4 2 3 3 4 4 6 6 6 7 8 9 7 7 5 5 4 3 4 4 4 5 8 16 5 2 14 16 21 20 17 15 16
4 6 6 5 5 4 2 3 3 3 4 5 6 6 7 7 9 8 7 6 5 3 2 3 3 3 2 2 3 18 5 8 14 17 18 18 15 15
1 1 3 3 1 2 4 5 3 4 4 5 6 6 6 7 8 7 7 6 5 2 2 2 3 3 2 2 3 2 17 4 12 16 14 8 9 16
3 3 4 3 2 2 2 4 6 6 6 4 4 5 5 7 7 7 7 9 7 2 3 2 1 5 3 2 3 3 5 16 5 11 13 12 13 10
2 3 3 3 4 4 2 3 4 4 4 5 4 4 4 6 7 8 7 8 6 4 4 2 2 3 2 2 4 6 4 6 15 20 12 5 16 13
7 5 3 3 3 3 3 4 5 6 6 6 7 6 6 6 7 7 7 7 7 5 2 2 1 1 2 2 5 6 8 8 6 10 6 12 15 14
Wind_Direction
268 268 265 270 266 266 267 268 263 296 299 296 294 296 302 300 294 289 280 267 248 247 254 254 260 253 248 250 196 198 194 193 191 189 184 179 175 175
266 265 270 269 271 266 273 279 278 281 283 303 291 306 299 296 293 292 281 278 267 250 253 258 256 247 239 247 213 191 189 187 187 186 184 178 174 174
265 263 267 276 271 280 275 266 260 256 269 284 285 289 295 286 285 283 284 283 280 270 257 250 250 244 240 234 227 190 188 182 182 180 181 176 172 173
270 269 268 273 275 271 269 266 263 265 271 283 287 291 288 294 292 289 286 286 285 279 269 255 244 238 237 229 220 205 185 177 178 178 174 174 172 174
267 265 274 277 274 268 266 266 271 267 268 276 290 290 289 293 291 292 285 284 289 284 273 256 244 239 232 225 212 205 182 177 169 172 169 171 171 171
269 271 268 268 267 268 266 269 271 268 268 271 279 285 286 289 283 285 278 281 288 282 274 268 252 239 230 220 212 203 179 167 162 167 168 169 169 169
267 266 266 265 267 262 268 269 268 273 272 273 275 279 279 285 282 288 282 286 281 280 275 278 260 250 213 207 205 192 185 169 167 164 164 169 167 167
269 267 269 264 255 242 248 249 255 270 273 270 270 270 277 284 285 286 287 285 296 256 286 291 297 222 199 198 194 181 176 167 168 163 165 166 165 165
260 267 270 265 255 267 255 237 251 245 243 261 269 267 277 281 292 290 286 283 279 282 288 294 288 225 194 189 196 185 179 174 169 165 164 166 164 161
255 259 261 267 264 263 269 270 271 268 262 251 255 270 273 283 286 285 287 286 282 279 297 283 282 211 189 192 185 181 179 169 166 162 162 162 162 155
252 253 253 257 270 249 263 269 271 271 269 253 252 261 271 276 275 280 277 285 291 291 322 270 284 88 186 183 180 173 176 164 162 155 158 158 156 152
250 252 233 250 269 254 260 265 269 274 280 292 289 288 285 283 280 276 285 285 289 293 252 320 289 258 27 336 163 164 161 155 154 153 156 155 149 156
240 241 242 221 231 247 253 260 265 284 288 277 280 294 293 300 300 293 290 280 281 276 310 325 308 310 70 109 157 176 168 158 149 152 152 153 160 156
232 227 222 222 237 247 253 254 259 271 272 285 291 296 306 306 305 301 295 287 283 283 302 293 274 267 304 92 134 163 173 160 150 158 154 156 155 155
242 223 223 240 251 263 244 252 260 267 281 292 302 302 305 302 297 298 299 289 276 276 307 309 287 324 312 143 148 150 158 159 153 152 151 161 155 157
221 233 231 245 264 266 264 248 246 264 288 295 299 300 297 302 305 307 311 314 306 308 330 330 330 21 2 11 145 147 162 155 147 154 152 152 157 161
195 225 215 215 218 225 257 260 264 273 294 302 303 310 311 312 314 318 316 319 312 319 334 323 356 42 40 21 104 160 159 147 154 149 151 147 160 158
211 234 225 203 220 218 252 293 301 314 326 319 321 321 315 319 323 323 316 315 312 313 325 323 337 5 19 24 27 119 103 152 154 152 150 147 158 159
221 244 224 200 209 220 230 289 325 330 321 332 330 326 319 320 320 324 327 323 319 322 333 337 335 12 105 78 322 19 111 149 151 153 155 164 160 162
295 80 114 89 3 15 353 337 326 345 345 341 336 332 323 321 322 329 329 326 313 321 338 343 352 29 4 105 118 25 29 110 168 160 151 139 116 102
66 57 51 42 28 65 32 328 336 339 332 320 334 336 335 328 324 323 326 327 316 301 299 290 13 89 93 73 71 53 28 34 131 154 136 131 139 136
45 35 25 19 17 10 11 337 322 339 350 331 331 327 334 330 327 327 327 324 329 304 295 83 105 91 44 34 104 115 100 68 66 69 51 53 161 161
351 348 329 333 316 314 328 359 350 345 342 340 338 339 338 334 331 321 318 315 323 309 277 110 128 63 63 88 123 129 125 116 130 111 62 55 44 98